Location: Ar Ranvel
(48.3000°N, 4.8833°W)
Time: 20:36:16
(UTC+00:00)

Meteor 2-10 Rocket - Pass Details

Date: 31 October 2021
Orbit: 733 x 885 km, 81.2° (Epoch: 30 November)

Event Time Altitude Azimuth Distance (km) Brightness Sun altitude
Rises 18:01:05 0° 187° (S) 3,345 7.0 -10.3°
Reaches altitude 10° 18:03:30 10° 186° (S) 2,393 6.3 -10.7°
Maximum altitude 18:08:54 82° 100° (E) 801 3.5 -11.6°
Drops below altitude 10° 18:14:07 10° 13° (NNE) 2,313 5.8 -12.5°
Sets 18:16:26 0° 13° (NNE) 3,225 6.5 -12.9°
